TimeMST,TemperatureF,Dew PointF,Humidity,Sea Level PressureIn,VisibilityMPH,Wind Direction,Wind SpeedMPH,Gust SpeedMPH,PrecipitationIn,Events,Conditions,WindDirDegrees,DateUTC
12:03 AM,-5.8,-7.6,92,30.35,10.0,ENE,4.6,-,N/A,,Partly Cloudy,60,2013-01-22 07:03:00
12:53 AM,-6.0,-9.9,83,30.61,10.0,ENE,3.5,-,N/A,,Clear,60,2013-01-22 07:53:00
1:15 AM,-7.6,-9.4,92,30.35,10.0,NE,5.8,-,N/A,,Partly Cloudy,40,2013-01-22 08:15:00
1:48 AM,-5.8,-11.2,77,30.35,10.0,Calm,Calm,-,N/A,,Mostly Cloudy,0,2013-01-22 08:48:00
1:53 AM,-7.1,-9.9,87,30.61,10.0,NNE,3.5,-,N/A,,Mostly Cloudy,30,2013-01-22 08:53:00
2:00 AM,-7.6,-11.2,84,30.35,10.0,NE,4.6,-,N/A,,Scattered Clouds,40,2013-01-22 09:00:00
2:53 AM,-6.0,-9.9,83,30.62,10.0,ENE,4.6,-,N/A,,Clear,60,2013-01-22 09:53:00
3:53 AM,-7.1,-11.0,83,30.62,10.0,NE,4.6,-,N/A,,Clear,40,2013-01-22 10:53:00
4:04 AM,-7.6,-11.2,84,30.35,10.0,NE,4.6,-,N/A,,Partly Cloudy,40,2013-01-22 11:04:00
4:53 AM,-7.1,-11.0,83,30.61,7.0,East,3.5,-,N/A,,Clear,90,2013-01-22 11:53:00
5:53 AM,-7.1,-9.9,87,30.63,10.0,NE,4.6,-,N/A,,Clear,50,2013-01-22 12:53:00
6:53 AM,-8.0,-11.9,83,30.66,10.0,Calm,Calm,-,N/A,,Clear,0,2013-01-22 13:53:00
7:53 AM,-9.0,-13.0,83,30.68,9.0,ENE,4.6,-,N/A,,Clear,70,2013-01-22 14:53:00
8:53 AM,-5.1,-9.0,83,30.69,7.0,NNE,3.5,-,N/A,,Clear,30,2013-01-22 15:53:00
9:53 AM,1.0,-2.9,83,30.68,10.0,East,3.5,-,N/A,,Clear,80,2013-01-22 16:53:00
10:53 AM,7.0,-0.0,73,30.68,10.0,NE,4.6,-,N/A,,Clear,50,2013-01-22 17:53:00
11:53 AM,12.0,1.9,64,30.66,10.0,Calm,Calm,-,N/A,,Clear,0,2013-01-22 18:53:00
12:53 PM,18.0,6.1,60,30.62,10.0,Calm,Calm,-,N/A,,Clear,0,2013-01-22 19:53:00
1:53 PM,21.0,8.1,57,30.60,10.0,Calm,Calm,-,N/A,,Clear,0,2013-01-22 20:53:00
2:53 PM,23.0,10.0,58,30.56,10.0,Calm,Calm,-,N/A,,Clear,0,2013-01-22 21:53:00
3:53 PM,23.0,10.0,58,30.56,10.0,Calm,Calm,-,N/A,,Clear,0,2013-01-22 22:53:00
4:53 PM,19.9,9.0,62,30.56,10.0,Calm,Calm,-,N/A,,Clear,0,2013-01-22 23:53:00
5:53 PM,15.1,8.1,74,30.57,10.0,Calm,Calm,-,N/A,,Clear,0,2013-01-23 00:53:00
6:53 PM,10.9,6.1,81,30.59,10.0,Calm,Calm,-,N/A,,Clear,0,2013-01-23 01:53:00
7:53 PM,7.0,3.0,84,30.60,10.0,NNE,3.5,-,N/A,,Clear,30,2013-01-23 02:53:00
8:53 PM,5.0,1.0,84,30.60,10.0,Calm,Calm,-,N/A,,Clear,0,2013-01-23 03:53:00
9:53 PM,3.9,1.0,88,30.57,7.0,ENE,4.6,-,N/A,,Clear,60,2013-01-23 04:53:00
10:53 PM,3.0,-0.0,87,30.57,10.0,Calm,Calm,-,N/A,,Clear,0,2013-01-23 05:53:00
11:53 PM,3.0,-0.0,87,30.54,10.0,ENE,5.8,-,N/A,,Clear,60,2013-01-23 06:53:00